User: anonymous   Login
Location: Oshawa
(43.9000°N, 78.8670°W)
Time: 02:47:25
(UTC-04:00)
Language:

Cosmos 839 Rocket - Orbit

View from above orbital plane
View from above orbital plane
View from above satellite
View from above satellite

Ground track
Ground track

The orbit data is extracted from the following two-line orbital elements,

1 09013U 76067B   15186.55328854 -.00000112  00000-0 -18639-3 0  9996
2 09013 065.8656 310.1238 0715820 351.5872 073.1007 12.35316349758626
Epoch (UTC): 05 July 2015 13:16:44
Eccentricity: 0.0715820
inclination: 65.8656°
perigee height: 960 km
apogee height: 2092 km
right ascension of ascending node: 310.1238°
argument of perigee: 351.5872°
revolutions per day: 12.35316349
mean anomaly at epoch: 73.1007°
orbit number at epoch: 75862

The dashed part of the orbit path shows where the satellite is in the earth's shadow,  

DLR